Вернуться в каталог

ONEWEB-0044

АктивенСвязьPO
NORAD 45150·PAYLOAD·🇬🇧 United Kingdom

Запущен Feb 6, 2020 с Baikonur Cosmodrome

Loading…

Ближайшие Пролёты (ближайшие 24 часа)

TLE

СвежийSource: CelesTrak SupGP

Эпоха: Sep 14, 2026, 14:15 UTC

1 45150C 20008V   26257.59425185  .00000092  00000+0  26513-3 0  2573
2 45150  87.8895  18.4688 0001841 105.5450   6.5222 13.10367503    18

Отслеживайте ONEWEB-0044 в реальном времени с AllMySat

Download on the App Store